• en France
  • Liste des pays
  • À 7 jours
  • Température de l'eau
  • Carte satellitaire
  • Carte météo
  • Widgets météo
  • user-avatar
    Se connecter

    Météo par heure à Klagenfurt

    Ce jour, 17 Octobre, Mercredi

    Heure Température Précipitation Vent Pression Humidité
    00:00 +9°C° 0 mm 1 m/s 692 mmHg 92%
    01:00 +9°C° 0 mm 1 m/s 692 mmHg 93%
    02:00 +9°C° 0 mm 1 m/s 692 mmHg 92%
    03:00 +9°C° 0 mm 1 m/s 692 mmHg 92%
    04:00 +9°C° 0 mm 1 m/s 692 mmHg 92%
    05:00 +9°C° 0.2 mm 1 m/s 692 mmHg 92%
    06:00 +10°C° 0.2 mm 1 m/s 692 mmHg 91%
    07:00 +10°C° 0 mm 1 m/s 692 mmHg 87%
    08:00 +11°C° 0.4 mm 1 m/s 692 mmHg 84%
    09:00 +12°C° 0.4 mm 0 m/s 692 mmHg 81%
    10:00 +13°C° 0.4 mm 0 m/s 692 mmHg 77%
    11:00 +15°C° 0.6 mm 1 m/s 692 mmHg 77%
    12:00 +15°C° 0.6 mm 1 m/s 692 mmHg 77%
    13:00 +15°C° 0.6 mm 1 m/s 692 mmHg 77%
    14:00 +15°C° 0.4 mm 1 m/s 692 mmHg 79%
    15:00 +15°C° 0.4 mm 1 m/s 692 mmHg 81%
    16:00 +15°C° 0.4 mm 1 m/s 691 mmHg 83%
    17:00 +14°C° 0.3 mm 1 m/s 691 mmHg 87%
    18:00 +13°C° 0.3 mm 1 m/s 691 mmHg 91%
    19:00 +10°C° 0.3 mm 0 m/s 691 mmHg 94%
    20:00 +10°C° 0.2 mm 0 m/s 691 mmHg 95%
    21:00 +10°C° 0.2 mm 0 m/s 691 mmHg 95%
    22:00 +10°C° 0.2 mm 0 m/s 691 mmHg 95%
    23:00 +10°C° 0.1 mm 0 m/s 691 mmHg 95%

    Demain, 18 Octobre, Jeudi

    Heure Température Précipitation Vent Pression Humidité
    00:00 +10°C° 0.1 mm 0 m/s 691 mmHg 95%
    01:00 +11°C° 0.1 mm 1 m/s 691 mmHg 95%
    02:00 +10°C° 0 mm 1 m/s 691 mmHg 95%
    03:00 +10°C° 0 mm 1 m/s 690 mmHg 95%
    04:00 +10°C° 0 mm 1 m/s 690 mmHg 95%
    05:00 +9°C° 0 mm 1 m/s 690 mmHg 95%
    06:00 +9°C° 0 mm 1 m/s 690 mmHg 95%
    07:00 +9°C° 0 mm 1 m/s 690 mmHg 95%
    08:00 +12°C° 0 mm 1 m/s 691 mmHg 87%
    09:00 +13°C° 0 mm 0 m/s 691 mmHg 79%
    10:00 +15°C° 0 mm 0 m/s 692 mmHg 71%
    11:00 +18°C° 0 mm 1 m/s 692 mmHg 67%
    12:00 +19°C° 0 mm 1 m/s 692 mmHg 63%
    13:00 +20°C° 0 mm 1 m/s 692 mmHg 59%
    14:00 +19°C° 0 mm 1 m/s 691 mmHg 63%
    15:00 +18°C° 0 mm 1 m/s 691 mmHg 68%
    16:00 +18°C° 0 mm 1 m/s 691 mmHg 72%
    17:00 +15°C° 0.1 mm 1 m/s 691 mmHg 78%
    18:00 +13°C° 0.1 mm 1 m/s 691 mmHg 84%
    19:00 +12°C° 0.1 mm 1 m/s 691 mmHg 91%
    20:00 +11°C° 0 mm 1 m/s 691 mmHg 92%
    21:00 +11°C° 0 mm 1 m/s 691 mmHg 92%
    22:00 +10°C° 0 mm 1 m/s 691 mmHg 93%
    23:00 +10°C° 0 mm 1 m/s 691 mmHg 93%

    Après-demain, 19 Octobre, Vendredi

    Heure Température Précipitation Vent Pression Humidité
    00:00 +10°C° 0 mm 1 m/s 691 mmHg 93%
    01:00 +9°C° 0 mm 1 m/s 691 mmHg 94%
    02:00 +9°C° 0 mm 1 m/s 691 mmHg 94%
    03:00 +9°C° 0 mm 1 m/s 691 mmHg 94%
    04:00 +9°C° 0 mm 1 m/s 691 mmHg 94%
    05:00 +9°C° 0 mm 1 m/s 691 mmHg 94%
    06:00 +9°C° 0 mm 1 m/s 691 mmHg 93%
    07:00 +8°C° 0 mm 1 m/s 692 mmHg 93%
    08:00 +11°C° 0 mm 1 m/s 692 mmHg 84%
    09:00 +13°C° 0 mm 1 m/s 693 mmHg 75%
    10:00 +16°C° 0 mm 1 m/s 693 mmHg 66%
    11:00 +18°C° 0 mm 1 m/s 694 mmHg 62%
    12:00 +19°C° 0 mm 1 m/s 694 mmHg 57%
    13:00 +19°C° 0 mm 1 m/s 694 mmHg 52%
    14:00 +19°C° 0 mm 1 m/s 694 mmHg 57%
    15:00 +18°C° 0 mm 1 m/s 693 mmHg 61%
    16:00 +16°C° 0 mm 1 m/s 693 mmHg 65%
    17:00 +14°C° 0 mm 1 m/s 693 mmHg 72%
    18:00 +12°C° 0 mm 1 m/s 693 mmHg 79%
    19:00 +10°C° 0 mm 1 m/s 693 mmHg 85%
    20:00 +10°C° 0 mm 1 m/s 693 mmHg 86%
    21:00 +9°C° 0 mm 1 m/s 694 mmHg 87%
    22:00 +9°C° 0 mm 1 m/s 694 mmHg 89%
    23:00 +9°C° 0 mm 1 m/s 694 mmHg 89%

    20 Octobre, Samedi

    Heure Température Précipitation Vent Pression Humidité
    00:00 +8°C° 0 mm 1 m/s 694 mmHg 90%
    01:00 +8°C° 0 mm 1 m/s 694 mmHg 91%
    02:00 +8°C° 0 mm 1 m/s 694 mmHg 91%
    03:00 +8°C° 0 mm 1 m/s 694 mmHg 91%
    04:00 +7°C° 0 mm 1 m/s 694 mmHg 91%
    05:00 +7°C° 0 mm 1 m/s 694 mmHg 91%
    06:00 +7°C° 0 mm 1 m/s 695 mmHg 90%
    07:00 +7°C° 0 mm 1 m/s 695 mmHg 90%
    08:00 +10°C° 0 mm 1 m/s 696 mmHg 80%
    09:00 +13°C° 0 mm 1 m/s 696 mmHg 70%
    10:00 +15°C° 0 mm 1 m/s 697 mmHg 61%
    11:00 +16°C° 0 mm 1 m/s 697 mmHg 57%
    12:00 +18°C° 0 mm 1 m/s 697 mmHg 53%
    13:00 +19°C° 0 mm 1 m/s 697 mmHg 49%
    14:00 +18°C° 0 mm 1 m/s 697 mmHg 54%
    15:00 +16°C° 0 mm 1 m/s 697 mmHg 58%
    16:00 +15°C° 0 mm 1 m/s 696 mmHg 63%
    17:00 +13°C° 0 mm 1 m/s 696 mmHg 70%
    18:00 +11°C° 0 mm 1 m/s 696 mmHg 78%
    19:00 +9°C° 0 mm 1 m/s 696 mmHg 85%
    20:00 +9°C° 0 mm 1 m/s 697 mmHg 87%
    21:00 +9°C° 0 mm 1 m/s 697 mmHg 88%
    22:00 +8°C° 0 mm 1 m/s 697 mmHg 90%
    23:00 +8°C° 0 mm 1 m/s 697 mmHg 90%

    21 Octobre, Dimanche

    Heure Température Précipitation Vent Pression Humidité
    00:00 +8°C° 0 mm 1 m/s 697 mmHg 91%
    01:00 +7°C° 0 mm 1 m/s 697 mmHg 92%
    02:00 +7°C° 0 mm 1 m/s 697 mmHg 92%
    03:00 +7°C° 0 mm 1 m/s 697 mmHg 92%
    04:00 +6°C° 0 mm 1 m/s 697 mmHg 93%
    05:00 +6°C° 0 mm 1 m/s 697 mmHg 92%
    06:00 +6°C° 0 mm 1 m/s 697 mmHg 92%
    07:00 +6°C° 0 mm 1 m/s 697 mmHg 91%
    08:00 +8°C° 0 mm 1 m/s 697 mmHg 80%
    09:00 +11°C° 0 mm 1 m/s 697 mmHg 70%
    10:00 +14°C° 0 mm 1 m/s 698 mmHg 59%
    11:00 +15°C° 0 mm 1 m/s 697 mmHg 54%
    12:00 +16°C° 0 mm 1 m/s 697 mmHg 49%
    13:00 +18°C° 0 mm 1 m/s 697 mmHg 44%
    14:00 +16°C° 0 mm 1 m/s 696 mmHg 49%
    15:00 +15°C° 0 mm 1 m/s 696 mmHg 54%
    16:00 +14°C° 0 mm 1 m/s 696 mmHg 59%
    17:00 +12°C° 0 mm 1 m/s 695 mmHg 66%
    18:00 +10°C° 0 mm 1 m/s 695 mmHg 73%
    19:00 +8°C° 0 mm 1 m/s 695 mmHg 79%
    20:00 +8°C° 0 mm 1 m/s 695 mmHg 81%
    21:00 +7°C° 0 mm 1 m/s 695 mmHg 82%
    22:00 +6°C° 0 mm 1 m/s 695 mmHg 84%
    23:00 +6°C° 0 mm 1 m/s 695 mmHg 84%

    22 Octobre, Lundi

    Heure Température Précipitation Vent Pression Humidité
    00:00 +6°C° 0 mm 1 m/s 695 mmHg 84%
    01:00 +5°C° 0 mm 1 m/s 694 mmHg 84%
    02:00 +5°C° 0 mm 1 m/s 694 mmHg 84%
    03:00 +5°C° 0 mm 1 m/s 694 mmHg 84%
    04:00 +4°C° 0 mm 1 m/s 694 mmHg 84%
    05:00 +4°C° 0 mm 1 m/s 694 mmHg 84%
    06:00 +4°C° 0 mm 1 m/s 694 mmHg 83%
    07:00 +4°C° 0 mm 1 m/s 695 mmHg 82%
    08:00 +7°C° 0 mm 1 m/s 695 mmHg 72%
    09:00 +9°C° 0 mm 1 m/s 695 mmHg 62%
    10:00 +12°C° 0 mm 1 m/s 696 mmHg 51%
    11:00 +13°C° 0 mm 1 m/s 696 mmHg 48%
    12:00 +14°C° 0 mm 2 m/s 695 mmHg 44%
    13:00 +15°C° 0 mm 2 m/s 695 mmHg 41%
    14:00 +14°C° 0 mm 2 m/s 695 mmHg 45%
    15:00 +13°C° 0 mm 1 m/s 695 mmHg 50%
    16:00 +13°C° 0 mm 1 m/s 695 mmHg 55%
    17:00 +11°C° 0 mm 1 m/s 695 mmHg 61%
    18:00 +8°C° 0 mm 1 m/s 695 mmHg 68%
    19:00 +6°C° 0 mm 1 m/s 695 mmHg 74%
    20:00 +6°C° 0 mm 1 m/s 695 mmHg 75%
    21:00 +5°C° 0 mm 1 m/s 695 mmHg 76%
    22:00 +5°C° 0 mm 1 m/s 695 mmHg 77%
    23:00 +5°C° 0 mm 1 m/s 694 mmHg 77%
    Voir plus